Find Starlink 3795

NORAD ID: 52264 Int'l Des: 2022-041 Owner: SPXS Country: US Constellation: starlink operational
LEOCIRCULAR

当前视图

正在加载3D地球...

About Starlink 3795

Starlink 3795 (NORAD 52264) is a starlink constellation satellite (v1.5) launched Apr 21, 2022 by SPXS of US. It operates in LEO, CIRCULAR orbit with a mass of 297.00 kg.

关于 Starlink 3795

正在加载描述...

即将过境

Passes for default location (London). Set your location on the main map for personalized predictions.

高度历史

Loading altitude history...

两行轨道根数

1 52264U 22041D 26193.51600831 .00000881 00000-0 37227-4 0 9995
2 52264 53.1604 265.1262 0001210 85.0041 275.1100 15.34386041233252
Epoch: Jul 12, 2026 • Age: 9 hours

当前状态

高度 477.8 km
远地点 / 近地点 N/A
速度 7.63 km/s
星下点 -42.86°S, 33.86°W
发射日期 Apr 21, 2022
运行时间 4.2 years
类型 internet

技术详情

分类 Payload
质量 297.00 kg
干质量 275.00 kg
总质量 297.00 kg
长度 0.20 m
直径 2.80 m
跨度 9.00 m
形状 Box + pan
制造商 SPXS
平台类型 Starlink
阶段状态 In Orbit
所有者/国家 SPXS/US

Most Searched